Weather History for KY51 - December, 2012

Change the Weather History Date:

Sunday, December 16, 2012

  Actual Average (KLSE) Record (KLSE)
Temperature  
Mean Temperature 34 °F 21 °F  
Max Temperature 41 °F 29 °F 58 °F (1959)
Min Temperature 28 °F 14 °F -21 °F (1932)
Degree Days  
Heating Degree Days 30 44  
Month to date heating degree days 658  
Since 1 July heating degree days 2158  
Cooling Degree Days 0 0  
Month to date cooling degree days 0  
Year to date cooling degree days 782  
Moisture  
Dew Point 34 °F    
Average Humidity 100    
Maximum Humidity 100    
Minimum Humidity 100    
Precipitation  
Precipitation 0.03 in 0.04 in 0.84 in (1921)
Month to date precipitation 0.80  
Year to date precipitation 32.50  
Snow  
Snow 0.00 in 0.40 in 3.70 in (1961)
Month to date snowfall 6.3  
Since 1 July snowfall 10.6  
Snow Depth -    
Sea Level Pressure  
Sea Level Pressure 29.62 in    
Wind  
Wind Speed 7 mph (WNW)    
Max Wind Speed 13 mph    
Max Gust Speed 17 mph    
Visibility 4 miles    
Events      
T = Trace of Precipitation, MM = Missing Value Source: NWS Daily Summary

Daily Weather History Graph

Daily Weather History Graph

Search for Another Location

Airport or City:

Trip Planner

Search our weather history database for the weather conditions in past years. The results will help you decide how hot, cold, wet, or windy it might be!

Date:

Astronomy

Dec. 16, 2012 Rise Set
Actual Time 7:30 AM CST 4:28 PM CST
Civil Twilight 6:58 AM CST 5:00 PM CST
Nautical Twilight 6:21 AM CST 5:37 PM CST
Astronomical Twilight 5:47 AM CST 6:11 PM CST
Moon 9:59 AM CST (12/16) 8:48 PM CST (12/16)
Length of Visible Light 10h 02m
Length of Day
8h 57m
Waxing Crescent, 16% of the Moon is Illuminated
Dec 16
Waxing Crescent
Dec 19
First Quarter
Dec 28
Full
Jan 4
Last Quarter
Jan 11
New

Hourly Weather History & Observations

Time (CST) Temp. Windchill Dew Point Humidity Pressure Visibility Wind Dir Wind Speed Gust Speed Precip Events Conditions
12:15 AM 41.0 °F - 41.0 °F 100% 29.49 in 0.5 mi Calm Calm - 0.01 in   Overcast
12:35 AM 41.0 °F 39.0 °F 41.0 °F 100% 29.49 in 0.5 mi SW 3.5 mph - 0.02 in   Overcast
12:55 AM 41.0 °F - 41.0 °F 100% 29.49 in 0.5 mi Calm Calm - 0.02 in   Overcast
1:15 AM 41.0 °F 39.0 °F 41.0 °F 100% 29.49 in 0.5 mi West 3.5 mph - 0.01 in   Overcast
1:35 AM 41.0 °F 38.0 °F 41.0 °F 100% 29.50 in 0.5 mi West 4.6 mph - 0.01 in   Overcast
2:15 AM 41.0 °F 36.4 °F 41.0 °F 100% 29.51 in 2.0 mi WNW 6.9 mph - N/A   Overcast
2:35 AM 39.2 °F 34.2 °F 39.2 °F 100% 29.51 in 2.5 mi WNW 6.9 mph - N/A   Overcast
2:55 AM 39.2 °F 34.2 °F 39.2 °F 100% 29.51 in 4.0 mi WNW 6.9 mph - N/A   Overcast
3:15 AM 39.2 °F 33.6 °F 39.2 °F 100% 29.52 in 3.0 mi WNW 8.1 mph - N/A   Overcast
3:35 AM 37.4 °F 31.4 °F 37.4 °F 100% 29.52 in 5.0 mi West 8.1 mph - N/A   Overcast
3:55 AM 37.4 °F 30.3 °F 37.4 °F 100% 29.53 in 4.0 mi West 10.4 mph - N/A   Overcast
4:15 AM 37.4 °F 31.4 °F 37.4 °F 100% 29.53 in 5.0 mi WNW 8.1 mph - N/A   Overcast
4:35 AM 35.6 °F 27.1 °F 35.6 °F 100% 29.54 in 7.0 mi WNW 12.7 mph - N/A   Overcast
4:55 AM 35.6 °F 28.0 °F 35.6 °F 100% 29.54 in 7.0 mi WNW 10.4 mph - N/A   Overcast
5:15 AM 33.8 °F 25.8 °F 33.8 °F 100% 29.55 in 5.0 mi West 10.4 mph - N/A   Overcast
5:35 AM 33.8 °F 27.7 °F 33.8 °F 100% 29.56 in 2.5 mi WNW 6.9 mph - N/A   Overcast
5:55 AM 33.8 °F 25.8 °F 33.8 °F 100% 29.57 in 2.5 mi WNW 10.4 mph - N/A   Overcast
6:15 AM 33.8 °F 27.7 °F 33.8 °F 100% 29.57 in 4.0 mi WNW 6.9 mph - N/A   Overcast
6:35 AM 33.8 °F 26.4 °F 33.8 °F 100% 29.58 in 7.0 mi WNW 9.2 mph - N/A   Overcast
6:55 AM 32.0 °F 23.6 °F 32.0 °F 100% 29.58 in 7.0 mi WNW 10.4 mph - N/A   Overcast
7:15 AM 32.0 °F 23.0 °F 32.0 °F 100% 29.59 in 10.0 mi WNW 11.5 mph 17.3 mph N/A   Overcast
7:35 AM 32.0 °F 22.5 °F 32.0 °F 100% 29.58 in 10.0 mi NW 12.7 mph - N/A   Overcast
7:55 AM 32.0 °F 23.6 °F 32.0 °F 100% 29.58 in 7.0 mi NW 10.4 mph - N/A   Overcast
8:15 AM 32.0 °F 24.8 °F 32.0 °F 100% 29.59 in 7.0 mi WNW 8.1 mph - N/A   Overcast
8:55 AM 33.8 °F 25.3 °F 33.8 °F 100% 29.61 in 5.0 mi WNW 11.5 mph - N/A   Overcast
9:15 AM 33.8 °F 25.8 °F 33.8 °F 100% 29.61 in 5.0 mi WNW 10.4 mph - N/A   Overcast
9:35 AM 33.8 °F 27.0 °F 33.8 °F 100% 29.62 in 5.0 mi WNW 8.1 mph - N/A   Overcast
9:55 AM 33.8 °F 27.0 °F 33.8 °F 100% 29.63 in 5.0 mi WNW 8.1 mph - N/A   Overcast
10:15 AM 33.8 °F 26.4 °F 33.8 °F 100% 29.63 in 5.0 mi NW 9.2 mph - N/A   Overcast
10:35 AM 33.8 °F 27.0 °F 33.8 °F 100% 29.64 in 5.0 mi WNW 8.1 mph - N/A   Overcast
10:55 AM 33.8 °F 27.7 °F 33.8 °F 100% 29.64 in 4.0 mi WNW 6.9 mph - N/A   Overcast
11:15 AM 33.8 °F 26.4 °F 33.8 °F 100% 29.64 in 5.0 mi WNW 9.2 mph - N/A   Overcast
11:35 AM 33.8 °F 27.7 °F 33.8 °F 100% 29.64 in 5.0 mi WNW 6.9 mph - N/A   Overcast
11:55 AM 33.8 °F 27.0 °F 33.8 °F 100% 29.64 in 3.0 mi WNW 8.1 mph - N/A   Overcast
12:15 PM 33.8 °F 27.0 °F 33.8 °F 100% 29.64 in 2.5 mi West 8.1 mph - N/A   Overcast
12:35 PM 33.8 °F 26.4 °F 33.8 °F 100% 29.63 in 0.5 mi West 9.2 mph - N/A   Overcast
12:55 PM 33.8 °F 26.4 °F 33.8 °F 100% 29.63 in 0.5 mi West 9.2 mph - N/A   Overcast
1:15 PM 33.8 °F 26.4 °F 33.8 °F 100% 29.63 in 0.8 mi WNW 9.2 mph - N/A   Overcast
1:35 PM 33.8 °F 25.8 °F 33.8 °F 100% 29.63 in 1.8 mi West 10.4 mph - N/A   Overcast
1:55 PM 33.8 °F 26.4 °F 33.8 °F 100% 29.63 in 1.8 mi WNW 9.2 mph - N/A   Overcast
2:15 PM 33.8 °F 25.8 °F 33.8 °F 100% 29.63 in 2.0 mi WNW 10.4 mph - N/A   Overcast
2:35 PM 33.8 °F 25.3 °F 33.8 °F 100% 29.63 in 2.0 mi WNW 11.5 mph - N/A   Overcast
2:55 PM 33.8 °F 26.4 °F 33.8 °F 100% 29.63 in 1.8 mi WNW 9.2 mph - N/A   Overcast
3:15 PM 33.8 °F 26.4 °F 33.8 °F 100% 29.64 in 1.8 mi WNW 9.2 mph - N/A   Overcast
3:35 PM 32.0 °F 24.2 °F 32.0 °F 100% 29.64 in 1.8 mi WNW 9.2 mph - N/A   Overcast
3:55 PM 32.0 °F 24.2 °F 32.0 °F 100% 29.65 in 1.5 mi WNW 9.2 mph - N/A   Overcast
4:15 PM 32.0 °F 24.8 °F 32.0 °F 100% 29.65 in 1.8 mi WNW 8.1 mph - N/A   Overcast
4:35 PM 32.0 °F 25.6 °F 32.0 °F 100% 29.65 in 1.8 mi WNW 6.9 mph - N/A   Overcast
4:55 PM 32.0 °F 24.8 °F 32.0 °F 100% 29.65 in 2.5 mi WNW 8.1 mph - N/A   Overcast
5:15 PM 32.0 °F 25.6 °F 32.0 °F 100% 29.66 in 2.5 mi WNW 6.9 mph - N/A   Overcast
5:35 PM 32.0 °F 24.8 °F 32.0 °F 100% 29.66 in 3.0 mi WNW 8.1 mph - N/A   Overcast
5:55 PM 32.0 °F 24.8 °F 32.0 °F 100% 29.67 in 2.5 mi WNW 8.1 mph - N/A   Overcast
6:15 PM 32.0 °F 24.2 °F 32.0 °F 100% 29.67 in 3.0 mi NW 9.2 mph - N/A   Overcast
6:35 PM 32.0 °F 24.2 °F 32.0 °F 100% 29.68 in 4.0 mi WNW 9.2 mph - N/A   Overcast
6:55 PM 32.0 °F 24.2 °F 32.0 °F 100% 29.69 in 4.0 mi WNW 9.2 mph - N/A   Overcast
7:15 PM 32.0 °F 26.4 °F 32.0 °F 100% 29.69 in 3.0 mi WNW 5.8 mph - N/A   Overcast
7:35 PM 30.2 °F 24.3 °F 30.2 °F 100% 29.70 in 3.0 mi WNW 5.8 mph - N/A   Overcast
7:55 PM 30.2 °F 24.3 °F 30.2 °F 100% 29.70 in 2.5 mi West 5.8 mph - N/A   Overcast
8:15 PM 30.2 °F 23.4 °F 30.2 °F 100% 29.71 in 1.8 mi West 6.9 mph - N/A   Overcast
8:35 PM 30.2 °F 23.4 °F 30.2 °F 100% 29.71 in 1.2 mi West 6.9 mph - N/A   Overcast
8:55 PM 30.2 °F 21.9 °F 30.2 °F 100% 29.72 in 1.8 mi WNW 9.2 mph - N/A   Overcast
9:15 PM 30.2 °F 23.4 °F 30.2 °F 100% 29.71 in 1.5 mi WNW 6.9 mph - N/A   Overcast
9:35 PM 30.2 °F 22.6 °F 30.2 °F 100% 29.71 in 1.0 mi NW 8.1 mph - N/A   Overcast
9:55 PM 28.4 °F 19.7 °F 28.4 °F 100% 29.71 in 3.0 mi WNW 9.2 mph - N/A   Overcast
10:15 PM 28.4 °F 20.4 °F 28.4 °F 100% 29.71 in 4.0 mi West 8.1 mph - N/A   Overcast
10:35 PM 28.4 °F 19.7 °F 28.4 °F 100% 29.71 in 5.0 mi NW 9.2 mph - N/A   Overcast
10:55 PM 28.4 °F 20.4 °F 28.4 °F 100% 29.71 in 5.0 mi WNW 8.1 mph - N/A   Overcast
11:15 PM 28.4 °F 22.2 °F 28.4 °F 100% 29.72 in 5.0 mi West 5.8 mph - N/A   Overcast
11:35 PM 28.4 °F 19.7 °F 28.4 °F 100% 29.72 in 4.0 mi NW 9.2 mph - N/A   Overcast
11:55 PM 28.4 °F 20.4 °F 28.4 °F 100% 29.72 in 5.0 mi WNW 8.1 mph - N/A   Overcast